Simultaneous Nadir Overpasses (SNOs) Predictions

Prediction of SNOs between GOES-17 and TERRA Satellite Orbit:

Table of predicted SNOs for the next 14.0 days since TLE Epoch: 1/21/2023
Index Date Time (GOES-17) GOES-17 Lat,Lon TERRA Lat,Lon Distance(km) Time Diff (sec)
1 01/22/2023 18:30:53 0.01,-124.93 -0.03,-124.59 38.25 80
2 01/24/2023 18:14:55 0.02,-122.61 -0.37,-120.66 220.85 80
3 01/25/2023 06:32:41 -0.01,-122.00 -0.79,-125.61 410.88 80
4 01/26/2023 17:58:57 0.02,-120.29 -0.74,-116.74 403.78 80
5 01/27/2023 06:16:43 -0.02,-119.68 -0.42,-121.69 227.97 80
6 01/29/2023 06:00:44 -0.02,-117.36 -0.08,-117.76 45.22 80
7 01/31/2023 05:47:24 -0.02,-115.03 0.24,-113.82 137.28 80
8 01/31/2023 18:05:00 0.01,-114.44 0.94,-118.72 487.12 80
9 02/02/2023 05:31:24 -0.02,-112.70 0.58,-109.89 319.89 80
10 02/02/2023 17:49:00 0.02,-112.12 0.59,-114.79 304.49 80
